Location: DARK SKY Beskydy - Park tmavé oblohy, www.darkskybeskydy.cz
(49.4926°N, 18.5016°E)
Time: 12:00:55
(UTC+02:00)

Vanguard 1 - Pass Details

Date: 27 February 2024
Orbit: 653 x 3825 km, 34.2° (Epoch: 12 April)

Event Time Altitude Azimuth Distance (km) Brightness Sun altitude
Rises 01:31:13 0° 278° (W) 7,344 14.3 -44.8°
Enters shadow 01:34:21 - 273° (W) 6,950 14.1 -44.5°
Reaches altitude 10° 01:37:09 10° 267° (W) 6,629 - -44.3°
Maximum altitude 01:53:25 26° 222° (SW) 5,612 - -42.6°
Drops below altitude 10° 02:09:16 10° 175° (S) 6,379 - -40.9°
Exits shadow 02:12:30 - 168° (SSE) 6,725 14.1 -40.5°
Sets 02:14:58 0° 163° (SSE) 7,020 14.2 -40.2°
